{"data":{"norad_id":60939,"intl_designator":"2024-155R","name":"STARLINK-32258","alt_names":[],"object_type":"PAYLOAD","status":"ACTIVE","operator":null,"country":"US","launch_date":"2024-08-31","launch_site_code":"AFWTR","launch_vehicle":null,"mission":null,"orbit_class":"UNKNOWN","rcs_meters":null,"size_class":null,"mass_kg":null,"dimensions":null,"purposes":["comms"],"wikipedia_slug":null,"has_3d_model":false,"image_url":null,"decayed_at":null,"tle_current":{"epoch":"2026-05-25T03:03:50.489280Z","epoch_age_seconds":67233,"freshness":"FRESH","line1":"1 60939U 24155R   26145.12766770  .00000265  00000+0  21055-4 0  9997","line2":"2 60939  53.1587 134.6359 0001055  85.6661 274.4460 15.30196038 97999","mean_motion":15.30196038,"eccentricity":0.0001055,"inclination_deg":53.1587,"raan_deg":134.6359,"arg_perigee_deg":85.6661,"mean_anomaly_deg":274.446,"bstar":2.1055e-5,"rev_number":9799,"period_min":94.105589365014,"perigee_km":474.50386937132,"apogee_km":475.94992915407,"semimajor_km":6853.3638992627,"source":"CELESTRAK","updated_at":"2026-05-25T13:38:19.320653Z"}}}